Content
SEND FEEDBACK

Daily
Averages
Monthly
Summary
United States of America

PUT IN BAY, OHIO


Home > North America > United States > Ohio
Elevation: 561 feet     Latitude: 41 39N     Longitude: 082 48W

WEATHER
 
SELECT A DAY
Number of Records: 122,906;   Date Range: 12/10/00 - 8/31/14
 
SHARE

PRINT THIS DATA

[ ← Previous Day ]
WEATHER ALMANAC - FEBRUARY 5, 2013
[ Next Day → ]
[ °C ]   °F
Weather ElementAverageHighLow
Temperature19.1 °F27.7 °F (11:00 pm)7.7 °F (7:00 am)
Dewpoint16.2 °F25.2 °F (11:00 pm)5 °F (7:00 am)
Humidity88 %95 % (8:00 pm)78 % (5:00 pm)
Barometer29.93 in29.98 in (10:00 am)29.87 in (4:00 pm)
Wind Speed5.8 mph10.4 mph (1:00 pm)
Weather ElementAverage
Wind DirectionSE (138.9 °)

Weather ElementTotal
Precipitation0.03 in
Heating Degree Days47.3 (Base 65)
Averaged from 27 records on February 5, 2013
WEATHER CONDITIONS BREAKOUT
WIND DIRECTION BREAKOUT
WEATHER BY HOUR - FEBRUARY 5, 2013
[ °C ]   °F
Local TimeTemperatureDewpointHumidityBarometerVisibilityWind DirectionWind SpeedGust SpeedPrecipitationEventsConditions
1:00 AM17.0 °F15.0 °F89 %29.95 inNNE (20°)4.6 mph
1:00 AM17.4 °F15.3 °F91 %29.95 inNNE (20°)4.6 mph
2:00 AM15.4 °F13.3 °F91 %29.94 inNNE (20°)3.5 mph
3:00 AM12.9 °F10.8 °F91 %29.95 inNE (40°)2.3 mph
4:00 AM11.7 °F9.5 °F91 %29.96 inCalm
5:00 AM11.5 °F9.3 °F91 %29.96 inNNE (30°)1.2 mph
6:00 AM9.5 °F7.0 °F90 %29.95 inCalm
7:00 AM8.0 °F5.0 °F81 %29.95 inNNE (20°)2.3 mph
7:00 AM7.7 °F5.0 °F89 %29.95 inNNE (20°)2.3 mph
8:00 AM12.4 °F10.0 °F90 %29.96 inENE (60°)1.2 mph
9:00 AM15.4 °F13.5 °F92 %29.97 inNE (50°)1.2 mph
10:00 AM17.2 °F15.1 °F91 %29.98 inSSW (200°)2.3 mph
11:00 AM20.1 °F16.9 °F87 %29.95 inSouth (180°)5.8 mph
12:00 PM21.2 °F16.9 °F83 %29.92 inSouth (170°)9.2 mph
1:00 PM22.0 °F18.0 °F80 %29.90 inSSW (200°)10.4 mph
1:00 PM22.5 °F18.3 °F84 %29.90 inSSW (200°)10.4 mph
2:00 PM22.5 °F18.7 °F85 %29.88 inSW (220°)10.4 mph
3:00 PM23.5 °F18.7 °F82 %29.88 inSW (230°)10.4 mph
4:00 PM24.3 °F19.0 °F80 %29.87 inSW (220°)8.1 mph
5:00 PM24.8 °F18.7 °F78 %29.87 inSW (220°)9.2 mph
6:00 PM25.0 °F19.2 °F79 %29.89 inSW (230°)8.1 mph
7:00 PM24.0 °F23.0 °F93 %29.90 inSW (220°)8.1 mph
7:00 PM24.4 °F22.8 °F94 %29.90 inSW (220°)8.1 mph0.02 in
8:00 PM25.0 °F23.7 °F95 %29.91 inSW (220°)8.1 mph0.01 in
9:00 PM25.5 °F24.3 °F95 %29.92 inSW (230°)8.1 mph
10:00 PM26.2 °F24.6 °F94 %29.93 inWSW (250°)8.1 mph
11:00 PM27.7 °F25.2 °F90 %29.94 inWest (260°)9.2 mph
Hourly data recorded from CXHA, located miles away from Put In Bay, Ohio







STORIES FROM OUR PARTNERS